Regional Weather Roundup
Issued by NWS Sterling, VA

Home | Current Version | Previous Version | Graphics & Text | Print | Product List | Glossary On
Versions: 1 2 3 4 5 6 7 8 9 10 11 12 13 14 15 16 17 18 19 20 21 22 23 24 25 26 27
000
ASUS41 KLWX 220711
RWRLWX

REGIONAL WEATHER ROUNDUP
NATIONAL WEATHER SERVICE BALTIMORE MD/WASHINGTON DC
300 AM EDT TUE AUG 22 2017

Note: "FAIR" indicates few or no clouds below 12,000 feet
with no significant weather and/or obstructions to visibility.
 TC=TEMPERATURE CELSIUS

 * =Non NWS site. Station does not report precipitation (e.g. rain,
    snow, etc.), thunder, or fog.

DCZ001-MDZ009-015-VAZ040>042-051-053>054-220800-
WASHINGTON METRO

CITY           SKY/WX    TMP DP  RH WIND       PRES   REMARKS
WASHINGTON NAT MOCLDY    76  74  93 S7        30.08F
DULLES         CLOUDY    72  71  97 CALM      30.08F
ANDREWS AFB    CLEAR     74  71  91 SW10      30.07F
FT BELVOIR     PTCLDY    71  70  97 CALM      30.08F
QUANTICO       CLEAR     78  75  90 SW6       30.09F
COLLEGE PARK*  CLEAR     71  70  96 CALM      30.07F
LEESBURG*      CLEAR     72  72 100 CALM      30.09F
MANASSAS*      CLOUDY    70  69  97 S3        30.09F
GAITHERSBURG*  CLEAR     73  71  93 CALM      30.10F

$$

MDZ006>007-011-014-220800-
BALTIMORE METRO

CITY           SKY/WX    TMP DP  RH WIND       PRES   REMARKS
BWI AIRPORT    PTCLDY    71  71 100 CALM      30.07F
MD SCIENCE CTR   N/A     76  72  87 MISG      30.08F
MARTIN STATE   CLEAR     73  73 100 CALM      30.09F
ANNAPOLIS      CLEAR     77  75  93 CALM      30.06F
FORT MEADE*    CLEAR     68  66  94 CALM      30.10F

$$

MDZ012-015-019>023-220800-
MARYLAND EASTERN SHORE

CITY           SKY/WX    TMP DP  RH WIND       PRES   REMARKS
OCEAN CITY     PTCLDY    79  77  94 SW9       30.11F
SALISBURY      PTCLDY    75  75 100 S5        30.10F
BAY BRIDGE AP* CLEAR     77  75  94 S5        30.08F
CAMBRIDGE*     CLEAR     77  75  94 S5        30.09F
EASTON*        CLEAR    N/A N/A N/A S5        30.12F

$$

MDZ017>025-220800-
SOUTHERN MARYLAND

CITY           SKY/WX    TMP DP  RH WIND       PRES   REMARKS
PATUXENT RIVER CLEAR     77  74  90 SW8       30.08F
ST INIGOES     CLEAR     79  75  87 S10       30.09F
LEONARDTOWN*   CLEAR     75  72  88 SW5       30.11S

$$

MDZ003>005-220800-
NORTH CENTRAL MARYLAND

CITY           SKY/WX    TMP DP  RH WIND       PRES   REMARKS
FREDERICK*     CLEAR     72  72 100 S3        30.11F
HAGERSTOWN APT CLEAR     74  68  81 CALM      30.08F
WESTMINSTER*   CLEAR     73  70  88 CALM      30.10F

$$

MDZ501>502-220800-
WESTERN MARYLAND

CITY           SKY/WX    TMP DP  RH WIND       PRES   REMARKS
OAKLAND*       CLEAR     64  63  94 SW6       30.16F
CUMBERLAND*    PTCLDY    68  68 100 CALM      30.13F

$$

VAZ025>031-220800-
SHENANDOAH VALLEY

CITY           SKY/WX    TMP DP  RH WIND       PRES   REMARKS
WINCHESTER*    CLEAR     68  66  94 CALM      30.08F
FRONT ROYAL*   CLEAR     70  70 100 S5        30.08F
LURAY*         PTCLDY    68  68 100 CALM      30.11F FOG
NEW MARKET*    CLEAR     69  67  94 CALM      30.10F
STAUNTON*      CLEAR     68  66  92 CALM      30.15F
WAYNESBORO*    CLEAR     70  69  96 CALM      30.14F

$$

WVZ021-048>050-054>055-220800-
EASTERN WEST VIRGINIA PANHANDLE

CITY           SKY/WX    TMP DP  RH WIND       PRES   REMARKS
MARTINSBURG    CLEAR     70  68  93 CALM      30.07F FOG
PETERSBURG*    PTCLDY    67  67  99 CALM      30.11F FOG

$$

VAZ036>039-050-220800-
CENTRAL FOOTHILLS

CITY           SKY/WX    TMP DP  RH WIND       PRES   REMARKS
CHARLOTTESVILL CLEAR     74  71  91 SW3       30.10F
CULPEPER*      CLEAR     68  68  99 CALM      30.10F
ORANGE*        CLEAR     68  68 100 CALM      30.09F
GORDONSVILLE*  CLEAR     70  70 100 CALM      30.09F
WARRENTON*     FOG       68  65  91 CALM      30.08F VSB 1/2

$$

VAZ055>057-220800-
NORTH AND CENTRAL PIEDMONT

CITY           SKY/WX    TMP DP  RH WIND       PRES   REMARKS
FREDERICKSBRG* CLEAR     74  74 100 CALM      30.08F
STAFFORD*      CLEAR     72  72 100 CALM      30.13F

$$

NCZ024-NYZ072-PAZ021-071-VAZ022-071-220800-
OTHER REGIONAL OBSERVATIONS

CITY           SKY/WX    TMP DP  RH WIND       PRES   REMARKS
NEW YORK CITY  PTCLDY    76  71  85 VRB3      30.09F
PHILADELPHIA   MOCLDY    76  73  91 S8        30.07F
PITTSBURGH     MOCLDY    73  70  90 S5        30.06F
ROANOKE        CLEAR     71  71 100 CALM      30.16F
RICHMOND       CLEAR     75  72  90 S3        30.10F
RALEIGH        PTCLDY    76  73  91 SW6       30.15F

$$

ANZ530>537-220800-
MARINE OBSERVATIONS

STATION/POSITION TIME  TEMP    WIND        PRES
                       AIR SEA DIR/SP/G
                 (UTC) (F)     (DEG/KT/KT) (MB)
THOMAS PT LIGHT  0700   77 81  220/  7/  8   N/A
BALT KEY BRIDGE  0648          180/  3/  4 1018.3F
COVE POINT       0648          230/ 10/ 12 1019.4F
LEWISETTA        0648          230/ 10/ 11 1018.9F
SOLOMONS ISLAND  0648          220/  8/ 10   N/A
PINEY POINT      0642          240/  8/ 11   N/A

$$





USA.gov is the U.S. government's official web portal to all federal, state and local government web resources and services.